Weather History for KCDN - December, 2013

Change the Weather History Date:

Wednesday, December 11, 2013

  Actual Average (KSMS) Record (KSMS)
Temperature  
Mean Temperature 42 °F -  
Max Temperature 53 °F 59 °F - (-1)
Min Temperature 30 °F 37 °F - (-1)
Degree Days  
Heating Degree Days 24    
Moisture  
Dew Point 31 °F    
Average Humidity 77    
Maximum Humidity 100    
Minimum Humidity 38    
Precipitation  
Precipitation 0.00 in - - ()
Sea Level Pressure  
Sea Level Pressure 30.38 in    
Wind  
Wind Speed 1 mph (ESE)    
Max Wind Speed 7 mph    
Max Gust Speed -    
Visibility 10 miles    
Events      
Averages and records for this station are not official NWS values.
T = Trace of Precipitation, MM = Missing Value Source: NWS Daily Summary

Daily Weather History Graph

Daily Weather History Graph

Search for Another Location

Airport or City:

Trip Planner

Search our weather history database for the weather conditions in past years. The results will help you decide how hot, cold, wet, or windy it might be!

Date:

Astronomy

Dec. 11, 2013 Rise Set
Actual Time 7:18 AM EST 5:12 PM EST
Civil Twilight 6:50 AM EST 5:40 PM EST
Nautical Twilight 6:19 AM EST 6:11 PM EST
Astronomical Twilight 5:48 AM EST 6:42 PM EST
Moon 1:35 PM EST (12/11) 1:50 AM EST (12/11)
Length of Visible Light 10h 50m
Length of Day
9h 54m
Waxing Gibbous, 71% of the Moon is Illuminated
Dec 11
Waxing Gibbous
Dec 17
Full
Dec 25
Last Quarter
Jan 1
New
Jan 7
First Quarter

Hourly Weather History & Observations

Time (EST) Temp. Windchill Dew Point Humidity Pressure Visibility Wind Dir Wind Speed Gust Speed Precip Events Conditions
12:15 AM 37.4 °F 34.9 °F 32.0 °F 81% 30.35 in 10.0 mi NNE 3.5 mph - 0.00 in   Clear
12:35 AM 37.4 °F - 32.0 °F 81% 30.35 in 10.0 mi Calm Calm - 0.00 in   Clear
12:55 AM 37.4 °F - 32.0 °F 81% 30.35 in 10.0 mi Calm Calm - 0.00 in   Clear
1:35 AM 33.8 °F - 32.0 °F 93% 30.35 in 10.0 mi Calm Calm - 0.00 in   Clear
1:55 AM 32.0 °F - 32.0 °F 100% 30.35 in 10.0 mi Calm Calm - 0.00 in   Clear
2:15 AM 32.0 °F - 32.0 °F 100% 30.35 in 10.0 mi Calm Calm - 0.00 in   Clear
2:35 AM 32.0 °F - 32.0 °F 100% 30.35 in 10.0 mi Calm Calm - 0.00 in   Clear
2:55 AM 32.0 °F - 32.0 °F 100% 30.36 in 10.0 mi Calm Calm - 0.00 in   Clear
3:15 AM 32.0 °F - 32.0 °F 100% 30.37 in 10.0 mi Calm Calm - 0.00 in   Clear
3:35 AM 32.0 °F - 30.2 °F 93% 30.37 in 10.0 mi Calm Calm - 0.00 in   Clear
3:55 AM 30.2 °F - 30.2 °F 100% 30.37 in 10.0 mi Calm Calm - 0.00 in   Clear
4:15 AM 30.2 °F - 30.2 °F 100% 30.37 in 10.0 mi Calm Calm - 0.00 in   Clear
4:35 AM 30.2 °F - 30.2 °F 100% 30.38 in 10.0 mi Calm Calm - 0.00 in   Clear
4:55 AM 30.2 °F - 30.2 °F 100% 30.39 in 10.0 mi Calm Calm - 0.00 in   Clear
5:15 AM 30.2 °F - 30.2 °F 100% 30.40 in 10.0 mi Calm Calm - 0.00 in   Clear
5:35 AM 30.2 °F - 30.2 °F 100% 30.41 in 10.0 mi Calm Calm - 0.00 in   Clear
5:55 AM 30.2 °F - 30.2 °F 100% 30.41 in 10.0 mi Calm Calm - 0.00 in   Clear
6:15 AM 30.2 °F - 30.2 °F 100% 30.42 in 10.0 mi Calm Calm - 0.00 in   Clear
6:35 AM 30.2 °F - 30.2 °F 100% 30.42 in 10.0 mi Calm Calm - 0.00 in   Clear
6:55 AM 30.2 °F - 28.4 °F 93% 30.43 in 10.0 mi Calm Calm - 0.00 in   Clear
7:15 AM 30.2 °F - 30.2 °F 100% 30.43 in 10.0 mi Calm Calm - 0.00 in   Clear
7:35 AM 30.2 °F - 30.2 °F 100% 30.44 in 10.0 mi Calm Calm - 0.00 in   Clear
7:55 AM 30.2 °F - 30.2 °F 100% 30.45 in 10.0 mi Calm Calm - 0.00 in   Clear
8:15 AM 32.0 °F - 30.2 °F 93% 30.46 in 10.0 mi Calm Calm - 0.00 in   Clear
8:35 AM 32.0 °F - 30.2 °F 93% 30.46 in 10.0 mi Calm Calm - 0.00 in   Clear
8:55 AM 33.8 °F - 32.0 °F 93% 30.46 in 10.0 mi Calm Calm - 0.00 in   Clear
9:15 AM 35.6 °F - 32.0 °F 87% 30.47 in 10.0 mi Calm Calm - 0.00 in   Clear
9:35 AM 37.4 °F - 32.0 °F 81% 30.47 in 10.0 mi Calm Calm - 0.00 in   Clear
9:55 AM 39.2 °F - 32.0 °F 75% 30.48 in 10.0 mi Calm Calm - 0.00 in   Clear
10:15 AM 41.0 °F 39.0 °F 28.4 °F 61% 30.48 in 10.0 mi East 3.5 mph - 0.00 in   Clear
10:35 AM 42.8 °F 38.6 °F 28.4 °F 57% 30.48 in 10.0 mi East 6.9 mph - 0.00 in   Clear
10:55 AM 42.8 °F 39.3 °F 28.4 °F 57% 30.48 in 10.0 mi East 5.8 mph - 0.00 in   Clear
11:15 AM 44.6 °F 42.2 °F 26.6 °F 49% 30.46 in 10.0 mi East 4.6 mph - 0.00 in   Clear
11:35 AM 44.6 °F 42.2 °F 26.6 °F 49% 30.45 in 10.0 mi East 4.6 mph - 0.00 in   Clear
11:55 AM 46.4 °F 45.2 °F 26.6 °F 46% 30.44 in 10.0 mi SE 3.5 mph - 0.00 in   Clear
12:15 PM 46.4 °F - 24.8 °F 43% 30.43 in 10.0 mi Calm Calm - 0.00 in   Clear
12:35 PM 48.2 °F - 28.4 °F 46% 30.41 in 10.0 mi Calm Calm - 0.00 in   Clear
12:55 PM 48.2 °F - 30.2 °F 50% 30.41 in 10.0 mi Calm Calm - 0.00 in   Clear
1:15 PM 50.0 °F - 28.4 °F 43% 30.39 in 10.0 mi South 3.5 mph - 0.00 in   Clear
1:35 PM 50.0 °F - 28.4 °F 43% 30.38 in 10.0 mi South 3.5 mph - 0.00 in   Clear
1:55 PM 50.0 °F - 28.4 °F 43% 30.37 in 10.0 mi SSE 4.6 mph - 0.00 in   Clear
2:15 PM 51.8 °F - 28.4 °F 41% 30.36 in 10.0 mi Calm Calm - 0.00 in   Clear
2:35 PM 51.8 °F - 28.4 °F 41% 30.35 in 10.0 mi Calm Calm - 0.00 in   Clear
2:55 PM 51.8 °F - 28.4 °F 41% 30.35 in 10.0 mi Calm Calm - 0.00 in   Clear
3:15 PM 51.8 °F - 28.4 °F 41% 30.35 in 10.0 mi Calm Calm - 0.00 in   Clear
3:35 PM 51.8 °F - 28.4 °F 41% 30.34 in 10.0 mi Calm Calm - 0.00 in   Clear
3:55 PM 53.6 °F - 28.4 °F 38% 30.35 in 10.0 mi Calm Calm - 0.00 in   Clear
4:15 PM 51.8 °F - 30.2 °F 44% 30.35 in 10.0 mi Calm Calm - 0.00 in   Clear
4:35 PM 51.8 °F - 28.4 °F 41% 30.35 in 10.0 mi Calm Calm - 0.00 in   Clear
4:55 PM 51.8 °F - 30.2 °F 44% 30.35 in 10.0 mi Calm Calm - 0.00 in   Clear
5:15 PM 50.0 °F - 32.0 °F 50% 30.35 in 10.0 mi Calm Calm - 0.00 in   Clear
5:35 PM 46.4 °F - 32.0 °F 57% 30.35 in 10.0 mi Calm Calm - 0.00 in   Clear
5:55 PM 44.6 °F - 33.8 °F 66% 30.35 in 10.0 mi Calm Calm - 0.00 in   Clear
6:15 PM 42.8 °F - 33.8 °F 70% 30.35 in 10.0 mi Calm Calm - 0.00 in   Clear
6:35 PM 42.8 °F - 35.6 °F 76% 30.35 in 10.0 mi Calm Calm - 0.00 in   Mostly Cloudy
6:55 PM 42.8 °F - 37.4 °F 81% 30.35 in 10.0 mi Calm Calm - 0.00 in   Mostly Cloudy
7:15 PM 42.8 °F - 37.4 °F 81% 30.35 in 10.0 mi Calm Calm - 0.00 in   Partly Cloudy
7:35 PM 41.0 °F - 37.4 °F 87% 30.36 in 10.0 mi Calm Calm - 0.00 in   Partly Cloudy
7:55 PM 39.2 °F - 35.6 °F 87% 30.36 in 10.0 mi Calm Calm - 0.00 in   Scattered Clouds
8:15 PM 41.0 °F - 35.6 °F 81% 30.35 in 10.0 mi Calm Calm - 0.00 in   Scattered Clouds
8:35 PM 39.2 °F - 37.4 °F 93% 30.34 in 10.0 mi Calm Calm - 0.00 in   Partly Cloudy
8:55 PM 41.0 °F - 37.4 °F 87% 30.34 in 10.0 mi Calm Calm - 0.00 in   Scattered Clouds
9:15 PM 39.2 °F - 37.4 °F 93% 30.34 in 10.0 mi Calm Calm - 0.00 in   Scattered Clouds
9:35 PM 39.2 °F - 37.4 °F 93% 30.34 in 10.0 mi Calm Calm - 0.00 in   Clear
9:55 PM 39.2 °F - 35.6 °F 87% 30.34 in 10.0 mi Calm Calm - 0.00 in   Clear
10:15 PM 37.4 °F - 35.6 °F 93% 30.34 in 10.0 mi Calm Calm - 0.00 in   Clear
10:35 PM 35.6 °F - 35.6 °F 100% 30.33 in 10.0 mi Calm Calm - 0.00 in   Clear
10:55 PM 35.6 °F - 33.8 °F 93% 30.33 in 10.0 mi Calm Calm - 0.00 in   Clear
11:15 PM 35.6 °F - 33.8 °F 93% 30.33 in 10.0 mi Calm Calm - 0.00 in   Clear
11:35 PM 35.6 °F - 33.8 °F 93% 30.33 in 10.0 mi Calm Calm - 0.00 in   Clear
11:55 PM 35.6 °F - 33.8 °F 93% 30.32 in 10.0 mi Calm Calm - 0.00 in   Clear